Location: Bukovec
(48.8502°N, 19.1896°E)
Time: 16:14:20
(UTC+00:00)

Daily predictions for brighter satellites

Satellite Brightness Start Highest point End
(mag) Time Altitude Azimuth Time Altitude Azimuth Time Altitude Azimuth
IRS-1C Rocket 4.4 15:15:26 10° SE 15:20:23 44° ENE 15:25:23 10° N
Meteor 2-6 Rocket 4.1 15:15:26 10° S 15:20:47 71° E 15:26:13 10° NNE
SL-4 R/B 1.9 15:17:34 10° W 15:21:13 71° NNW 15:25:11 10° ENE
BREEZE-M DEB (TANK) 3.3 15:14:03 10° WSW 15:21:17 60° S 15:24:25 10° E
Aureole 1 Rocket 4.3 15:20:13 10° ESE 15:21:27 12° E 15:22:43 10° ENE
Cosmos 921 Rocket 4.2 15:18:16 10° N 15:21:30 20° NE 15:24:45 10° ESE
NOSS 0 Rocket 4.2 15:17:05 10° S 15:23:05 53° ESE 15:29:08 10° NE
Cosmos 1867 4.5 15:18:31 10° NNW 15:23:17 29° NNE 15:28:00 10° E
Cosmos 2237 Rocket 2.7 15:21:22 10° S 15:26:44 44° ESE 15:32:06 10° NE
ALOS 2.9 15:23:10 10° S 15:27:47 63° W 15:32:27 10° NNW
ATLAS 2AS CENTAUR R/B 3.7 15:20:37 10° WSW 15:28:26 52° NW 15:36:11 10° NE
Cosmos 1346 Rocket 4.3 15:25:52 10° NNW 15:29:38 41° W 15:33:24 10° SSW
Cosmos 2333 Rocket 2.5 15:24:08 10° SSW 15:29:52 76° WNW 15:35:42 10° NNE
Cosmos 2322 Rocket 4.1 15:26:30 10° W 15:30:44 21° NW 15:34:59 10° N
Cosmos 1782 4.1 15:28:11 10° SSW 15:31:58 42° WNW 15:35:46 10° N
Radarsat Rocket 4.1 15:26:27 10° SSE 15:32:32 85° WSW 15:38:23 10° NNW
NOSS 7 (D) 4.4 15:31:57 10° NW 15:34:54 74° SW 15:38:14 10° SE
Cosmos 2219 Rocket 2.5 15:30:44 10° SW 15:36:20 70° WNW 15:42:00 10° NNE
Cosmos 1812 2.8 15:33:33 10° S 15:37:19 55° E 15:41:08 10° NNE
CZ-4 R/B 3.0 15:35:50 10° E 15:37:50 14° ENE 15:39:49 10° NNE
Cosmos 292 Rocket 3.9 15:35:45 10° NNW 15:40:33 53° ENE 15:45:17 10° SE
SL-16 R/B 4.3 15:36:59 10° WNW 15:40:42 18° NW 15:44:26 10° N
Cosmos 1943 Rocket 3.4 15:37:05 10° N 15:41:20 21° NE 15:45:33 10° E
Cosmos 1900 4.4 15:36:29 10° NW 15:41:25 83° SW 15:46:17 10° SSE
Cosmos 1315 Rocket 4.2 15:40:01 10° SW 15:43:47 39° WNW 15:47:39 10° N
Cosmos 1500 3.1 15:40:13 10° N 15:44:00 89° E 15:47:45 10° S
BREEZE-M R/B 3.2 15:41:44 10° W 15:48:25 80° N 15:51:27 13° E
Cosmos 1862 Rocket 3.5 15:46:39 10° S 15:51:00 75° E 15:55:25 10° NNE
Meteor 1-10 Rocket 4.4 15:45:40 10° SSW 15:51:13 77° WNW 15:56:53 10° N
Exosat Rocket 3.5 15:48:24 10° SSW 15:53:36 80° ESE 15:58:42 10° NNE
ISS -0.8 15:51:10 10° W 15:53:37 19° SW 15:56:04 10° S
Cosmos 1703 Rocket 4.4 15:50:37 10° SSE 15:54:34 32° E 15:58:33 10° NNE
USA 215 3.3 15:48:57 11° ENE 15:55:15 81° SE 16:01:48 10° SW
STARLINK-67 3.6 15:52:51 10° WNW 15:55:25 32° N 15:56:52 19° NE
Cosmos 1980 3.7 15:52:34 10° SSW 15:58:12 79° ESE 16:03:53 10° NNE
STARLINK-52 4.1 15:55:00 10° SSW 15:58:12 35° SE 16:00:24 17° E
Cosmos 1975 4.2 15:55:44 10° NNE 15:58:31 18° ENE 16:01:17 10° ESE
PSLV R/B 3.9 15:55:05 10° NNE 15:59:16 80° ESE 16:03:23 10° SSW
Okean O Rocket 3.5 16:01:11 10° SSW 16:05:08 34° W 16:09:07 10° NNW
Meteor 1-11 Rocket 4.3 15:59:14 10° NNW 16:05:10 67° W 16:11:02 10° S
Cosmos 2297 3.7 16:00:26 10° NNW 16:06:07 62° ENE 16:11:44 10° SE
STARLINK-29 3.8 16:02:56 10° SW 16:06:19 44° SE 16:08:17 21° E
STARLINK-60 3.2 16:03:17 10° SW 16:06:38 63° SSE 16:08:34 23° ENE
Meteor 1-27 Rocket 3.8 16:01:43 10° S 16:07:30 90° WNW 16:13:26 10° NNE
STARLINK-46 3.4 16:05:07 10° W 16:07:38 36° N 16:08:41 25° NE
Cosmos 1092 Rocket 4.1 16:02:09 10° S 16:08:18 58° E 16:14:25 10° NNE
Cosmos 1441 Rocket 3.3 16:04:44 10° N 16:08:28 48° ENE 16:12:06 10° SSE
H-2A R/B 2.6 16:06:07 10° SSE 16:09:48 87° W 16:13:31 10° NNW
COBE Rocket 3.7 16:07:45 10° NNE 16:12:25 73° E 16:17:07 10° S
Cosmos 2242 Rocket 3.6 16:08:11 10° S 16:12:45 79° E 16:17:21 10° NNE
Genesis I 3.4 16:18:35 10° NW 16:22:29 70° SW 16:26:18 10° SSE
COSMOS 2428 4.0 16:17:45 10° WSW 16:22:59 36° NW 16:28:16 10° NNE
Cosmos 1908 Rocket 3.6 16:20:15 10° NNW 16:24:40 80° W 16:29:01 10° S
Cosmos 2251 Rocket 4.2 16:20:40 10° SW 16:25:51 54° WNW 16:31:03 10° NNE
CZ-4B R/B 4.4 16:24:35 10° NNW 16:26:17 13° WNW 16:28:00 10° W
Okean-O 2.5 16:22:18 10° SSE 16:26:44 84° ENE 16:31:12 10° NNW
Cosmos 1666 2.9 16:24:24 10° NNW 16:28:08 69° W 16:31:50 10° S
NOSS 3-1 (C) 4.4 16:21:44 10° NW 16:28:26 42° NNE 16:33:24 21° E
Envisat 2.9 16:24:28 10° SSE 16:29:32 81° ENE 16:34:39 10° NNW
Cosmos 1140 Rocket 4.1 16:25:53 10° SSE 16:30:29 34° ESE 16:32:10 27° ENE
USA 267 3.7 16:24:08 10° SE 16:30:36 62° SW 16:37:06 10° WNW
RESURS DK-1 4.3 16:27:18 10° WSW 16:30:41 24° NW 16:34:06 10° N
NOAA 12 4.1 16:25:26 10° SSE 16:30:45 86° WSW 16:36:04 10° NNW
COSMO-SKYMED 1 3.0 16:28:54 24° NE 16:31:04 41° E 16:35:10 10° S
Okean 1-7 3.0 16:29:01 10° S 16:33:19 64° E 16:36:59 14° NNE
Cosmos 1263 4.4 16:30:53 10° SSW 16:33:51 67° W 16:36:11 16° N
Meteor 1-18 Rocket 4.4 16:30:36 10° SSE 16:36:02 48° E 16:40:34 15° NNE
YAOGAN 1 2.8 16:33:42 10° SE 16:37:48 43° ENE 16:41:56 10° N
USA 229 DEB 4.2 16:31:30 10° NW 16:38:19 45° NE 16:42:15 25° E
USA 229 4.2 16:31:36 10° NW 16:38:24 45° NE 16:42:17 25° E
Cosmos 407 Rocket 3.5 16:33:54 10° S 16:38:59 57° ESE 16:41:58 25° NE
S3M 4.2 16:33:55 10° N 16:39:50 43° ENE 16:45:38 10° SE
NOSS 3-1 (A) 4.5 16:36:58 10° NW 16:43:32 39° NNE 16:46:46 28° ENE
Uosat 12 SS-18 rocket 4.4 16:38:51 10° NNW 16:43:42 48° NE 16:44:51 38° E
CZ-4C R/B 4.1 16:42:25 10° SE 16:42:50 11° SE 16:42:50 11° SE
Cosmos 1428 Rocket 4.4 16:39:36 10° S 16:45:44 70° E 16:51:57 10° NNE
Cosmos 1553 Rocket 4.0 16:45:28 10° N 16:51:51 67° ENE 16:58:13 10° SSE
Lacrosse 5 rocket 2.4 16:50:51 10° W 16:54:41 33° NNW 16:55:35 30° N
SKYMED 3 4.4 16:53:18 32° NNE 16:55:17 72° ESE 16:59:36 10° S
Cosmos 2369 Rocket 2.4 16:50:10 10° NNW 16:55:37 48° NE 16:57:15 38° E
YAOGAN 6 2.6 16:52:19 10° S 16:55:51 76° WSW 16:59:28 10° NNW
FengYun 1-2 T 4.3 16:52:55 10° SSE 16:58:24 81° WSW 17:03:58 10° NNW
Cosmos 1743 2.9 16:55:54 10° NNW 16:59:46 72° W 17:03:37 10° S
Cosmos 921 Rocket 3.8 16:55:54 10° NNW 17:00:04 51° WSW 17:04:17 10° S
SL-4 R/B 2.0 16:57:20 10° WNW 17:01:08 58° N 17:01:17 58° NNE
SL-16 R/B 2.1 16:55:48 10° SSW 17:01:29 88° ESE 17:04:30 30° NNE
Cosmos 489 Rocket 4.4 16:57:25 10° NNW 17:03:50 85° ENE 17:10:13 10° SSE
Okean 1 3.2 17:00:28 10° S 17:04:27 85° W 17:05:31 48° N
Cosmos 2026 Rocket 4.0 16:59:11 10° SSW 17:05:14 78° W 17:11:21 10° N
Aureole 1 Rocket 3.7 17:02:33 10° SW 17:05:22 35° WNW 17:06:13 29° NNW
Cosmos 2344 4.3 16:56:40 10° NW 17:05:37 58° NE 17:12:23 28° ESE
FALCON 9 DEB 3.4 17:03:24 10° WSW 17:06:35 65° WNW 17:06:35 65° WNW
Cosmos 1867 3.7 17:01:56 10° NW 17:07:25 76° SW 17:11:58 15° SSE
Cosmos 2237 Rocket 3.4 17:05:38 10° WSW 17:10:54 38° NW 17:15:04 15° N
CZ-4 R/B 1.6 17:08:32 10° S 17:12:23 66° WSW 17:16:15 10° NNW
Ariane Rocket 4.2 17:15:01 27° NNE 17:15:01 27° NNE 17:17:33 10° N
SeaSat 1 4.0 17:16:08 21° N 17:16:08 21° N 17:18:13 10° NNW
ATLAS 5 CENTAUR R/B 3.5 17:13:06 10° W 17:13:53 18° W 17:13:53 18° W
Cosmos 2333 Rocket 4.3 17:11:03 10° W 17:15:10 20° NW 17:19:18 10° N
SKYMED 2 3.8 17:17:34 35° N 17:19:15 67° WNW 17:23:33 10° SSW
ATLAS 2AS CENTAUR R/B 4.3 17:14:29 10° WNW 17:21:17 29° NNW 17:24:34 22° NNE
Cosmos 2219 Rocket 4.4 17:17:37 10° W 17:21:22 18° NW 17:25:09 10° N
Meteor 2-4 Rocket 3.8 17:19:19 10° S 17:24:45 59° ESE 17:24:45 59° ESE
Cosmos 1943 Rocket 2.0 17:20:14 10° NNW 17:25:55 88° ENE 17:27:52 43° SSE
Okean 2 Rocket 3.3 17:23:55 10° NNW 17:28:24 69° W 17:32:52 10° S
Meteor 1-19 Rocket 4.0 17:23:39 10° S 17:29:09 88° WNW 17:31:03 43° N
Cosmos 883 Rocket 4.4 17:23:50 10° N 17:30:09 61° ENE 17:30:16 61° E
Cosmos 2221 Rocket 3.7 17:26:57 10° SSW 17:31:09 72° WSW 17:31:09 72° WSW
Cosmos 1190 Rocket 4.4 17:29:20 10° SW 17:34:28 60° WNW 17:36:02 42° N
Cosmos 1975 3.8 17:31:24 10° NNW 17:35:15 45° W 17:39:04 10° SSW
Meteor 1-12 Rocket 4.2 17:30:29 10° NNW 17:36:25 88° ENE 17:42:11 10° S
Cosmos 676 Rocket 3.9 17:31:32 10° SSW 17:36:36 86° SSW 17:36:36 86° SSW
CSL-04 Rocket 4.1 17:32:10 10° S 17:37:21 59° WSW 17:42:37 10° NNW
USA 215 3.7 17:36:17 41° NNE 17:38:04 52° NNW 17:44:22 10° W
Lacrosse 5 3.6 17:39:11 10° SSW 17:41:13 22° S 17:41:13 22° S
Cosmos 1954 Rocket 4.0 17:39:07 10° SSW 17:43:50 73° SW 17:43:50 73° SW
Cosmos 1241 Rocket 4.3 17:40:01 10° SSW 17:46:22 80° SE 17:46:27 80° ESE
Cosmos 1655 Rocket 4.1 17:42:45 10° SSW 17:49:04 75° W 17:53:07 24° N
Cosmos 2263 4.4 17:51:16 10° NNW 17:56:10 64° NNW 17:56:10 64° NNW
NOSS 3-1 (C) 4.1 18:12:31 10° NW 18:19:58 75° SW 18:20:52 68° S
USA 229 DEB 4.1 18:22:31 10° NW 18:29:40 64° SW 18:29:44 64° SW
USA 229 4.1 18:22:37 10° NW 18:29:45 64° SW 18:29:47 64° SW
CZ-4C R/B 4.3 18:27:18 10° SW 18:28:04 15° SW 18:28:04 15° SW
NOSS 3-1 (A) 4.1 18:27:48 10° NW 18:34:15 71° WNW 18:34:15 71° WNW
Cosmos 2369 Rocket 3.7 18:34:31 10° NW 18:39:07 32° W 18:39:07 32° W
SL-16 R/B 4.2 18:42:01 10° W 18:46:24 22° NW 18:46:25 22° NW
